H1 CPF 2 NER 2021 10 28 9 301 01 glonass143 H2 2007501 9143 46805 2021 10 28 0 0 0 2021 10 31 23 45 0 900 1 1 0 0 0 1 H9 10 0 59515 0.00000 0 12536809.964 -4193024.729 21826170.777 10 0 59515 900.00000 0 14810522.810 -2902593.768 20573886.041 10 0 59515 1800.00000 0 17013377.127 -1862472.644 18922398.660 10 0 59515 2700.00000 0 19078937.085 -1074705.703 16903667.409 10 0 59515 3600.00000 0 20943362.348 -528964.668 14556789.108 10 0 59515 4500.00000 0 22547960.333 -203211.139 11927249.168 10 0 59515 5400.00000 0 23841543.392 -64858.645 9066046.478 10 0 59515 6300.00000 0 24782492.255 -72385.111 6028708.811 10 0 59515 7200.00000 0 25340438.882 -177327.630 2874217.383 10 0 59515 8100.00000 0 25497497.582 -326574.949 -336138.728 10 0 59515 9000.00000 0 25248991.953 -464860.246 -3539956.001 10 0 59515 9900.00000 0 24603646.373 -537348.060 -6674933.970 10 0 59515 10800.00000 0 23583233.310 -492204.899 -9680092.551 10 0 59515 11700.00000 0 22221690.787 -283043.582 -12496964.762 10 0 59515 12600.00000 0 20563746.794 128863.394 -15070740.744 10 0 59515 13500.00000 0 18663108.368 772696.425 -17351340.138 10 0 59515 14400.00000 0 16580291.415 1666608.465 -19294391.398 10 0 59515 15300.00000 0 14380182.549 2816715.581 -20862098.530 10 0 59515 16200.00000 0 12129435.347 4216602.188 -22023978.271 10 0 59515 17100.00000 0 9893810.156 5847362.989 -22757453.396 10 0 59515 18000.00000 0 7735568.831 7678180.820 -23048290.753 10 0 59515 18900.00000 0 5711033.107 9667417.044 -22890875.829 10 0 59515 19800.00000 0 3868408.165 11764169.563 -22288318.785 10 0 59515 20700.00000 0 2245961.690 13910233.747 -21252390.221 10 0 59515 21600.00000 0 870633.498 16042384.709 -19803288.163 10 0 59515 22500.00000 0 -242867.380 18094885.864 -17969240.978 10 0 59515 23400.00000 0 -1092441.736 20002119.030 -15785954.116 10 0 59515 24300.00000 0 -1688441.092 21701226.301 -13295911.522 10 0 59515 25200.00000 0 -2052978.822 23134653.289 -10547545.431 10 0 59515 26100.00000 0 -2218742.059 24252487.405 -7594290.901 10 0 59515 27000.00000 0 -2227356.045 25014493.446 -4493543.683 10 0 59515 27900.00000 0 -2127371.312 25391761.464 -1305541.971 10 0 59515 28800.00000 0 -1971959.908 25367898.163 1907805.831 10 0 59515 29700.00000 0 -1816419.014 24939712.328 5084124.205 10 0 59515 30600.00000 0 -1715588.269 24117366.057 8161780.887 10 0 59515 31500.00000 0 -1721290.487 22923985.982 11081080.713 10 0 59515 32400.00000 0 -1879904.264 21394751.272 13785419.853 10 0 59515 33300.00000 0 -2230171.201 19575496.976 16222378.280 10 0 59515 34200.00000 0 -2801330.338 17520891.343 18344729.641 10 0 59515 35100.00000 0 -3611658.570 15292263.246 20111349.665 10 0 59515 36000.00000 0 -4667478.718 12955170.045 21488006.276 10 0 59515 36900.00000 0 -5962677.367 10576806.747 22448016.894 10 0 59515 37800.00000 0 -7478753.379 8223363.518 22972761.043 10 0 59515 38700.00000 0 -9185396.075 5957440.424 23052038.955 10 0 59515 39600.00000 0 -11041570.070 3835625.870 22684269.630 10 0 59515 40500.00000 0 -12997062.874 1906338.194 21876524.650 10 0 59515 41400.00000 0 -14994432.212 208019.040 20644396.833 10 0 59515 42300.00000 0 -16971273.208 -1232247.243 19011705.765 10 0 59515 43200.00000 0 -18862712.237 -2399631.586 17010045.096 10 0 59515 44100.00000 0 -20604024.441 -3291938.775 14678179.372 10 0 59515 45000.00000 0 -22133266.258 -3919451.279 12061301.094 10 0 59515 45900.00000 0 -23393813.302 -4304245.341 9210161.433 10 0 59515 46800.00000 0 -24336697.305 -4479008.357 6180090.612 10 0 59515 47700.00000 0 -24922643.739 -4485407.623 3029926.520 10 0 59515 48600.00000 0 -25123723.961 -4372079.612 -179127.904 10 0 59515 49500.00000 0 -24924551.570 -4192325.212 -3384696.222 10 0 59515 50400.00000 0 -24322971.707 -4001608.977 -6524445.340 10 0 59515 51300.00000 0 -23330213.366 -3854969.074 -9537303.384 10 0 59515 52200.00000 0 -21970497.423 -3804448.556 -12364654.167 10 0 59515 53100.00000 0 -20280116.245 -3896657.798 -14951484.117 10 0 59515 54000.00000 0 -18306023.038 -4170572.455 -17247458.667 10 0 59515 54900.00000 0 -16103989.915 -4655661.278 -19207906.588 10 0 59515 55800.00000 0 -13736411.818 -5370424.034 -20794692.638 10 0 59515 56700.00000 0 -11269848.306 -6321402.370 -21976961.442 10 0 59515 57600.00000 0 -8772406.006 -7502706.296 -22731738.138 10 0 59515 58500.00000 0 -6311071.156 -8896077.126 -23044374.243 10 0 59515 59400.00000 0 -3949103.396 -10471484.967 -22908830.388 10 0 59515 60300.00000 0 -1743599.169 -12188236.364 -22327790.698 10 0 59515 61200.00000 0 256674.178 -13996546.090 -21312606.899 10 0 59515 62100.00000 0 2013084.103 -15839507.603 -19883073.495 10 0 59515 63000.00000 0 3498504.197 -17655379.887 -18067038.551 10 0 59515 63900.00000 0 4698195.096 -19380094.984 -15899857.825 10 0 59515 64800.00000 0 5610159.751 -20949881.269 -13423702.980 10 0 59515 65700.00000 0 6244959.871 -22303892.547 -10686737.410 10 0 59515 66600.00000 0 6625002.940 -23386732.693 -7742175.962 10 0 59515 67500.00000 0 6783331.569 -24150769.995 -4647247.032 10 0 59515 68400.00000 0 6761967.795 -24558144.094 -1462077.482 10 0 59515 69300.00000 0 6609883.582 -24582381.410 1751477.514 10 0 59515 70200.00000 0 6380684.438 -24209551.428 4931036.653 10 0 59515 71100.00000 0 6130105.000 -23438915.535 8014903.096 10 0 59515 72000.00000 0 5913423.059 -22283041.508 10943259.704 10 0 59515 72900.00000 0 5782901.754 -20767379.072 13659325.753 10 0 59515 73800.00000 0 5785368.147 -18929314.504 16110452.925 10 0 59515 74700.00000 0 5960030.430 -16816743.886 18249139.678 10 0 59515 75600.00000 0 6336625.730 -14486224.450 20033945.001 10 0 59515 76500.00000 0 6933976.550 -12000780.729 21430284.655 10 0 59515 77400.00000 0 7759016.639 -9427456.322 22411095.231 10 0 59515 78300.00000 0 8806327.543 -6834712.257 22957354.030 10 0 59515 79200.00000 0 10058205.903 -4289779.003 23058445.330 10 0 59515 80100.00000 0 11485259.503 -1856071.015 22712366.356 10 0 59515 81000.00000 0 13047508.289 409230.108 21925769.111 10 0 59515 81900.00000 0 14695945.583 2457324.696 20713837.031 10 0 59515 82800.00000 0 16374495.592 4249588.059 19099998.340 10 0 59515 83700.00000 0 18022286.663 5758933.921 17115480.861 10 0 59515 84600.00000 0 19576146.399 6970692.272 14798715.933 10 0 59515 85500.00000 0 20973215.001 7882965.550 12194601.973 10 0 59516 0.00000 0 22153567.807 8506448.764 9353641.242 10 0 59516 900.00000 0 23062737.760 8863721.792 6330964.168 10 0 59516 1800.00000 0 23654030.034 8988043.127 3185263.520 10 0 59516 2700.00000 0 23890533.071 8921697.404 -22346.196 10 0 59516 3600.00000 0 23746738.867 8713965.956 -3229518.152 10 0 59516 4500.00000 0 23209703.881 8418807.089 -6373889.297 10 0 59516 5400.00000 0 22279700.466 8092344.820 -9394298.702 10 0 59516 6300.00000 0 20970330.204 7790273.222 -12231983.677 10 0 59516 7200.00000 0 19308093.431 7565287.166 -14831729.549 10 0 59516 8100.00000 0 17331432.169 7464649.229 -17142950.001 10 0 59516 9000.00000 0 15089286.018 7527996.736 -19120676.394 10 0 59516 9900.00000 0 12639221.160 7785482.600 -20726436.334 10 0 59516 10800.00000 0 10045210.539 8256329.413 -21929004.239 10 0 59516 11700.00000 0 7375157.829 8947858.592 -22705009.313 10 0 59516 12600.00000 0 4698268.509 9855036.180 -23039389.228 10 0 59516 13500.00000 0 2082377.483 10960554.988 -22925680.974 10 0 59516 14400.00000 0 -408655.686 12235450.083 -22366143.523 10 0 59516 15300.00000 0 -2717375.860 13640222.085 -21371710.229 10 0 59516 16200.00000 0 -4794885.230 15126421.331 -19961772.141 10 0 59516 17100.00000 0 -6602631.334 16638626.546 -18163796.638 10 0 59516 18000.00000 0 -8113756.684 18116734.991 -16012788.947 10 0 59516 18900.00000 0 -9313955.136 19498467.927 -13550607.173 10 0 59516 19800.00000 0 -10201800.779 20721986.112 -10825144.197 10 0 59516 20700.00000 0 -10788537.228 21728505.316 -7889392.641 10 0 59516 21600.00000 0 -11097337.990 22464801.841 -4800411.226 10 0 59516 22500.00000 0 -11162070.710 22885502.622 -1618212.926 10 0 59516 23400.00000 0 -11025618.923 22955063.521 1595403.066 10 0 59516 24300.00000 0 -10737833.501 22649352.676 4778052.555 10 0 59516 25200.00000 0 -10353201.407 21956772.359 7867977.112 10 0 59516 26100.00000 0 -9928331.025 20878872.285 10805240.645 10 0 59516 27000.00000 0 -9519360.837 19430428.698 13532888.540 10 0 59516 27900.00000 0 -9179401.111 17638985.859 15998047.134 10 0 59516 28800.00000 0 -8956116.544 15543879.057 18152942.520 10 0 59516 29700.00000 0 -8889551.678 13194779.639 19955819.621 10 0 59516 30600.00000 0 -9010290.413 10649822.245 21371744.480 10 0 59516 31500.00000 0 -9338026.893 7973391.580 22373275.041 10 0 59516 32400.00000 0 -9880607.764 5233659.854 22940988.237 10 0 59516 33300.00000 0 -10633586.176 2499976.013 23063853.867 10 0 59516 34200.00000 0 -11580306.660 -159786.000 22739448.410 10 0 59516 35100.00000 0 -12692518.046 -2681811.255 21974004.837 10 0 59516 36000.00000 0 -13931489.688 -5008754.222 20782297.209 10 0 59516 36900.00000 0 -15249585.362 -7091876.550 19187361.840 10 0 59516 37800.00000 0 -16592230.061 -8892824.491 17220059.639 10 0 59516 38700.00000 0 -17900188.409 -10384972.904 14918487.111 10 0 59516 39600.00000 0 -19112060.019 -11554280.420 12327246.473 10 0 59516 40500.00000 0 -20166887.712 -12399620.584 9496588.028 10 0 59516 41400.00000 0 -21006769.284 -12932575.578 6481440.560 10 0 59516 42300.00000 0 -21579362.829 -13176701.404 3340348.106 10 0 59516 43200.00000 0 -21840179.649 -13166295.837 134333.423 10 0 59516 44100.00000 0 -21754567.319 -12944721.414 -3074289.690 10 0 59516 45000.00000 0 -21299298.191 -12562354.675 -6223131.706 10 0 59516 45900.00000 0 -20463695.139 -12074248.946 -9250946.112 10 0 59516 46800.00000 0 -19250245.762 -11537610.157 -12098827.133 10 0 59516 47700.00000 0 -17674677.922 -11009193.331 -14711362.255 10 0 59516 48600.00000 0 -15765492.284 -10542730.728 -17037716.451 10 0 59516 49500.00000 0 -13562970.507 -10186501.292 -19032626.370 10 0 59516 50400.00000 0 -11117699.954 -9981144.956 -20657284.719 10 0 59516 51300.00000 0 -8488676.145 -9957814.840 -21880097.426 10 0 59516 52200.00000 0 -5741061.788 -10136745.932 -22677298.883 10 0 59516 53100.00000 0 -2943695.775 -10526301.050 -23033413.401 10 0 59516 54000.00000 0 -166455.630 -11122534.598 -22941554.209 10 0 59516 54900.00000 0 2522417.036 -11909292.679 -22403554.457 10 0 59516 55800.00000 0 5058917.052 -12858845.445 -21429927.978 10 0 59516 56700.00000 0 7385694.566 -13933025.057 -20039660.826 10 0 59516 57600.00000 0 9454192.327 -15084821.377 -18259837.820 10 0 59516 58500.00000 0 11226413.236 -16260368.092 -16125111.524 10 0 59516 59400.00000 0 12676245.659 -17401235.601 -13677024.117 10 0 59516 60300.00000 0 13790292.574 -18446933.949 -10963195.421 10 0 59516 61200.00000 0 14568171.362 -19337520.254 -8036393.113 10 0 59516 62100.00000 0 15022273.379 -20016200.579 -4953503.411 10 0 59516 63000.00000 0 15176995.139 -20431816.481 -1774422.504 10 0 59516 63900.00000 0 15067475.015 -20541111.307 1439109.300 10 0 59516 64800.00000 0 14737890.211 -20310680.626 4624707.742 10 0 59516 65700.00000 0 14239387.068 -19718524.598 7720555.506 10 0 59516 66600.00000 0 13627732.997 -18755136.861 10666600.038 10 0 59516 67500.00000 0 12960789.802 -17424084.057 13405715.086 10 0 59516 68400.00000 0 12295915.356 -15742051.486 15884803.596 10 0 59516 69300.00000 0 11687403.237 -13738352.716 18055820.943 10 0 59516 70200.00000 0 11184068.026 -11453923.209 19876699.292 10 0 59516 71100.00000 0 10827077.590 -8939839.317 21312155.962 10 0 59516 72000.00000 0 10648123.065 -6255423.612 22334370.905 10 0 59516 72900.00000 0 10668003.081 -3466014.328 22923521.035 10 0 59516 73800.00000 0 10895681.400 -640490.350 23068161.719 10 0 59516 74700.00000 0 11327857.473 2151346.724 22765448.471 10 0 59516 75600.00000 0 11949068.163 4841426.280 22021194.760 10 0 59516 76500.00000 0 12732316.871 7365989.430 20849764.594 10 0 59516 77400.00000 0 13640204.405 9667990.882 19273801.504 10 0 59516 78300.00000 0 14626515.055 11699223.344 17323798.420 10 0 59516 79200.00000 0 15638192.231 13422077.021 15037515.781 10 0 59516 80100.00000 0 16617621.552 14810861.561 12459258.192 10 0 59516 81000.00000 0 17505126.038 15852635.814 9639022.638 10 0 59516 81900.00000 0 18241568.806 16547511.076 6631533.927 10 0 59516 82800.00000 0 18770953.615 16908415.301 3495185.575 10 0 59516 83700.00000 0 19042913.287 16960328.451 290906.376 10 0 59516 84600.00000 0 19014980.259 16739021.424 -2919025.269 10 0 59516 85500.00000 0 18654542.435 16289352.006 -6072195.809 10 0 59517 0.00000 0 17940400.573 15663190.326 -9107275.351 10 0 59517 900.00000 0 16863859.636 14917061.636 -11965217.993 10 0 59517 1800.00000 0 15429307.717 14109607.558 -14590415.408 10 0 59517 2700.00000 0 13654255.467 13298972.751 -16931785.999 10 0 59517 3600.00000 0 11568833.984 12540228.952 -18943773.689 10 0 59517 4500.00000 0 9214770.854 11882945.589 -20587238.090 10 0 59517 5400.00000 0 6643886.439 11369010.130 -21830218.272 10 0 59517 6300.00000 0 3916172.561 11030790.561 -22648555.262 10 0 59517 7200.00000 0 1097533.378 10889717.687 -23026361.258 10 0 59517 8100.00000 0 -1742717.779 10955347.085 -22956326.714 10 0 59517 9000.00000 0 -4534501.765 11224940.103 -22439859.629 10 0 59517 9900.00000 0 -7209647.426 11683581.358 -21487054.603 10 0 59517 10800.00000 0 -9704485.097 12304827.468 -20116492.560 10 0 59517 11700.00000 0 -11962252.500 13051859.353 -18354875.187 10 0 59517 12600.00000 0 -13935213.498 13879089.192 -16236501.391 10 0 59517 13500.00000 0 -15586402.419 14734153.923 -13802596.059 10 0 59517 14400.00000 0 -16890922.297 15560210.905 -11100504.264 10 0 59517 15300.00000 0 -17836744.030 16298438.540 -8182766.814 10 0 59517 16200.00000 0 -18424974.503 16890636.041 -5106095.309 10 0 59517 17100.00000 0 -18669583.989 17281812.312 -1930266.897 10 0 59517 18000.00000 0 -18596605.805 17422654.436 1283039.365 10 0 59517 18900.00000 0 -18242843.399 17271771.355 4471441.626 10 0 59517 19800.00000 0 -17654140.646 16797617.913 7573066.227 10 0 59517 20700.00000 0 -16883289.304 15980018.006 10527746.781 10 0 59517 21600.00000 0 -15987662.651 14811222.488 13278188.053 10 0 59517 22500.00000 0 -15026675.477 13296457.079 15771072.271 10 0 59517 23400.00000 0 -14059177.599 11453936.938 17958086.705 10 0 59517 24300.00000 0 -13140890.432 9314346.745 19796853.272 10 0 59517 25200.00000 0 -12321994.031 6919807.267 21251742.893 10 0 59517 26100.00000 0 -11644965.445 4322370.684 22294559.625 10 0 59517 27000.00000 0 -11142758.478 1582106.168 22905082.162 10 0 59517 27900.00000 0 -10837400.654 -1235145.978 23071452.891 10 0 59517 28800.00000 0 -10739065.754 -4060259.690 22790407.430 10 0 59517 29700.00000 0 -10845660.560 -6823446.369 22067340.393 10 0 59517 30600.00000 0 -11142943.154 -9456908.590 20916205.922 10 0 59517 31500.00000 0 -11605168.070 -11897415.416 19359254.493 10 0 59517 32400.00000 0 -12196231.720 -14088693.588 17426610.310 10 0 59517 33300.00000 0 -12871270.611 -15983536.136 15155696.544 10 0 59517 34200.00000 0 -13578645.830 -17545541.238 12590518.552 10 0 59517 35100.00000 0 -14262230.878 -18750409.344 9780817.984 10 0 59517 36000.00000 0 -14863906.818 -19586744.590 6781113.322 10 0 59517 36900.00000 0 -15326159.662 -20056327.077 3649644.918 10 0 59517 37800.00000 0 -15594670.071 -20173844.671 447244.740 10 0 59517 38700.00000 0 -15620785.419 -19966095.675 -2763847.274 10 0 59517 39600.00000 0 -15363768.823 -19470696.083 -5921196.768 10 0 59517 40500.00000 0 -14792728.898 -18734346.175 -8963394.328 10 0 59517 41400.00000 0 -13888147.301 -17810729.990 -11831256.212 10 0 59517 42300.00000 0 -12642938.109 -16758136.842 -14468982.205 10 0 59517 43200.00000 0 -11062992.817 -15636905.906 -16825247.387 10 0 59517 44100.00000 0 -9167186.549 -14506802.333 -18854205.957 10 0 59517 45000.00000 0 -6986843.941 -13424436.196 -20516387.077 10 0 59517 45900.00000 0 -4564685.942 -12440833.590 -21779465.137 10 0 59517 46800.00000 0 -1953300.646 -11599262.512 -22618889.420 10 0 59517 47700.00000 0 786798.605 -10933405.230 -23018361.028 10 0 59517 48600.00000 0 3589447.472 -10465953.964 -22970148.062 10 0 59517 49500.00000 0 6385342.934 -10207688.657 -22475233.218 10 0 59517 50400.00000 0 9104689.409 -10157075.177 -21543291.209 10 0 59517 51300.00000 0 11679868.980 -10300400.258 -20192496.724 10 0 59517 52200.00000 0 14048025.100 -10612436.790 -18449166.817 10 0 59517 53100.00000 0 16153452.636 -11057610.754 -16347244.871 10 0 59517 54000.00000 0 17949695.438 -11591619.865 -13927636.270 10 0 59517 54900.00000 0 19401264.762 -12163435.003 -11237408.806 10 0 59517 55800.00000 0 20484907.745 -12717599.333 -8328873.583 10 0 59517 56700.00000 0 21190374.108 -13196727.460 -5258564.496 10 0 59517 57600.00000 0 21520650.256 -13544098.572 -2086136.379 10 0 59517 58500.00000 0 21491652.319 -13706233.565 1126796.319 10 0 59517 59400.00000 0 21131392.448 -13635346.943 4317857.477 10 0 59517 60300.00000 0 20478654.693 -13291569.630 7425120.285 10 0 59517 61200.00000 0 19581237.296 -12644848.631 10388307.461 10 0 59517 62100.00000 0 18493836.297 -11676443.207 13149957.408 10 0 59517 63000.00000 0 17275660.038 -10379954.218 15656533.868 10 0 59517 63900.00000 0 15987875.197 -8761843.016 17859457.840 10 0 59517 64800.00000 0 14690991.623 -6841417.530 19716042.415 10 0 59517 65700.00000 0 13442295.397 -4650285.361 21190313.150 10 0 59517 66600.00000 0 12293437.264 -2231295.836 22253698.862 10 0 59517 67500.00000 0 11288276.740 362986.052 22885580.322 10 0 59517 68400.00000 0 10461071.408 3072211.640 23073686.913 10 0 59517 69300.00000 0 9835086.472 5830507.629 22814334.012 10 0 59517 70200.00000 0 9421682.137 8568969.863 22112496.738 10 0 59517 71100.00000 0 9219916.591 11218289.895 20981718.470 10 0 59517 72000.00000 0 9216681.055 13711406.590 19443855.483 10 0 59517 72900.00000 0 9387361.264 15986073.900 17528661.896 10 0 59517 73800.00000 0 9696997.835 17987239.054 15273222.041 10 0 59517 74700.00000 0 10101897.125 19669132.771 12721240.272 10 0 59517 75600.00000 0 10551625.144 20996984.829 9922200.959 10 0 59517 76500.00000 0 10991300.780 21948293.513 6930414.124 10 0 59517 77400.00000 0 11364091.670 22513595.757 3803964.666 10 0 59517 78300.00000 0 11613807.129 22696705.631 603585.270 10 0 59517 79200.00000 0 11687478.049 22514411.028 -2608525.118 10 0 59517 80100.00000 0 11537813.847 21995641.199 -5769913.907 10 0 59517 81000.00000 0 11125431.471 21180140.245 -8819094.423 10 0 59517 81900.00000 0 10420760.851 20116702.629 -11696748.048 10 0 59517 82800.00000 0 9405544.824 18861045.391 -14346884.648 10 0 59517 83700.00000 0 8073868.645 17473407.230 -16717938.030 10 0 59517 84600.00000 0 6432674.120 16015976.099 -18763774.509 10 0 59517 85500.00000 0 4501735.301 14550254.212 -20444594.416 10 0 59518 0.00000 0 2313095.617 13134471.932 -21727708.763 10 0 59518 900.00000 0 -90012.350 11821158.829 -22588176.490 10 0 59518 1800.00000 0 -2654717.148 10654976.027 -23009288.384 10 0 59518 2700.00000 0 -5320468.751 9670898.191 -22982890.804 10 0 59518 3600.00000 0 -8021324.832 8892823.064 -22509541.402 10 0 59518 4500.00000 0 -10688469.266 8332665.514 -21598494.859 10 0 59518 5400.00000 0 -13252858.244 7989973.507 -20267519.045 10 0 59518 6300.00000 0 -15647884.184 7852081.131 -18542545.365 10 0 59518 7200.00000 0 -17811946.822 7894791.238 -16457160.272 10 0 59518 8100.00000 0 -19690824.827 8083557.870 -14051947.913 10 0 59518 9000.00000 0 -21239749.611 8375117.615 -11373696.824 10 0 59518 9900.00000 0 -22425095.355 8719500.105 -8474486.271 10 0 59518 10800.00000 0 -23225615.515 9062331.902 -5410670.217 10 0 59518 11700.00000 0 -23633174.992 9347335.652 -2241778.918 10 0 59518 12600.00000 0 -23652948.390 9518918.267 970640.088 10 0 59518 13500.00000 0 -23303077.197 9524738.157 4164218.741 10 0 59518 14400.00000 0 -22613801.468 9318142.589 7276979.437 10 0 59518 15300.00000 0 -21626103.517 8860371.878 10248536.385 10 0 59518 16200.00000 0 -20389921.565 8122437.073 13021264.021 10 0 59518 17100.00000 0 -18962008.982 7086591.642 15541409.970 10 0 59518 18000.00000 0 -17403529.432 5747334.880 17760131.248 10 0 59518 18900.00000 0 -15777488.822 4111904.366 19634434.260 10 0 59518 19800.00000 0 -14146111.439 2200236.087 21128001.116 10 0 59518 20700.00000 0 -12568269.593 44393.062 22211887.042 10 0 59518 21600.00000 0 -11097073.561 -2312514.816 22865076.223 10 0 59518 22500.00000 0 -9777721.621 -4817876.050 23074886.018 10 0 59518 23400.00000 0 -8645699.152 -7411525.002 22837212.194 10 0 59518 24300.00000 0 -7725401.092 -10028012.158 22156610.645 10 0 59518 25200.00000 0 -7029234.584 -12599104.433 21046213.899 10 0 59518 26100.00000 0 -6557238.763 -15056413.029 19527483.580 10 0 59518 27000.00000 0 -6297237.242 -17334040.903 17629802.927 10 0 59518 27900.00000 0 -6225516.718 -19371140.815 15389916.309 10 0 59518 28800.00000 0 -6308003.246 -21114278.031 12851225.617 10 0 59518 29700.00000 0 -6501886.800 -22519499.642 10062956.204 10 0 59518 30600.00000 0 -6757625.769 -23554024.168 7079207.630 10 0 59518 31500.00000 0 -7021246.885 -24197480.582 3957907.112 10 0 59518 32400.00000 0 -7236843.208 -24442644.583 759685.642 10 0 59518 33300.00000 0 -7349164.167 -24295640.844 -2453301.436 10 0 59518 34200.00000 0 -7306187.354 -23775602.382 -5618586.051 10 0 59518 35100.00000 0 -7061562.265 -22913801.134 -8674607.182 10 0 59518 36000.00000 0 -6576821.360 -21752286.248 -11561914.358 10 0 59518 36900.00000 0 -5823263.530 -20342087.468 -14224330.593 10 0 59518 37800.00000 0 -4783428.905 -18741059.506 -16610051.456 10 0 59518 38700.00000 0 -3452101.163 -17011458.424 -18672658.254 10 0 59518 39600.00000 0 -1836793.691 -15217352.368 -20372025.107 10 0 59518 40500.00000 0 42302.320 -13421975.849 -21675102.080 10 0 59518 41400.00000 0 2152906.923 -11685138.867 -22556559.085 10 0 59518 42300.00000 0 4451753.967 -10060799.718 -22999278.112 10 0 59518 43200.00000 0 6886161.956 -8594903.104 -22994684.500 10 0 59518 44100.00000 0 9396008.340 -7323573.710 -22542911.052 10 0 59518 45000.00000 0 11916025.345 -6271740.342 -21652792.128 10 0 59518 45900.00000 0 14378322.062 -5452247.364 -20341688.047 10 0 59518 46800.00000 0 16715028.021 -4865489.576 -18635143.423 10 0 59518 47700.00000 0 18860948.253 -4499584.625 -16566386.226 10 0 59518 48600.00000 0 20756119.424 -4331074.374 -14175677.435 10 0 59518 49500.00000 0 22348160.723 -4326124.299 -11509523.999 10 0 59518 50400.00000 0 23594321.634 -4442169.166 -8619770.649 10 0 59518 51300.00000 0 24463141.556 -4629934.293 -5562588.393 10 0 59518 52200.00000 0 24935652.443 -4835745.998 -2397379.630 10 0 59518 53100.00000 0 25006074.851 -5004032.707 814378.426 10 0 59518 54000.00000 0 24681979.087 -5079910.207 4010329.214 10 0 59518 54900.00000 0 23983905.640 -5011741.166 7128447.664 10 0 59518 55800.00000 0 22944461.703 -4753560.307 10108242.593 10 0 59518 56700.00000 0 21606932.518 -4267262.422 12891927.277 10 0 59518 57600.00000 0 20023466.423 -3524460.618 15425535.659 10 0 59518 58500.00000 0 18252910.086 -2507936.177 17659962.816 10 0 59518 59400.00000 0 16358384.715 -1212618.629 19551910.103 10 0 59518 60300.00000 0 14404704.428 353945.697 21064717.439 10 0 59518 61200.00000 0 12455744.259 2171657.018 22169067.333 10 0 59518 62100.00000 0 10571866.942 4208455.665 22843547.894 10 0 59518 63000.00000 0 8807514.884 6421422.366 23075064.616 10 0 59518 63900.00000 0 7209066.781 8758340.685 22859093.454 10 0 59518 64800.00000 0 5813047.154 11159658.101 22199770.528 10 0 59518 65700.00000 0 4644762.462 13560765.729 21109816.614 10 0 59518 66600.00000 0 3717419.945 15894503.224 19610297.471 10 0 59518 67500.00000 0 3031765.251 18093786.062 17730223.946 10 0 59518 68400.00000 0 2576253.552 20094246.879 15505998.658 10 0 59518 69300.00000 0 2327746.676 21836781.504 12980719.033 10 0 59518 70200.00000 0 2252706.787 23269893.931 10203349.188 10 0 59518 71100.00000 0 2308836.260 24351742.316 7227775.830 10 0 59518 72000.00000 0 2447094.542 25051800.127 4111765.941 10 0 59518 72900.00000 0 2614006.584 25352062.429 915846.141 10 0 59518 73800.00000 0 2754164.872 25247746.092 -2297874.574 10 0 59518 74700.00000 0 2812818.595 24747453.921 -5466915.412 10 0 59518 75600.00000 0 2738439.476 23872795.248 -8529643.693 10 0 59518 76500.00000 0 2485154.564 22657478.545 -11426479.639 10 0 59518 77400.00000 0 2014941.791 21145913.987 -14101061.774 10 0 59518 78300.00000 0 1299494.021 19391384.688 -16501349.544 10 0 59518 79200.00000 0 321671.434 17453863.558 -18580641.116 10 0 59518 80100.00000 0 -923520.502 15397567.710 -20298485.994 10 0 59518 81000.00000 0 -2428470.015 13288353.295 -21621474.526 10 0 59518 81900.00000 0 -4173035.662 11191060.129 -22523888.862 10 0 59518 82800.00000 0 -6125158.477 9166917.489 -22988202.796 10 0 59518 83700.00000 0 -8241984.951 7271119.479 -23005421.017 10 0 59518 84600.00000 0 -10471454.649 5550671.041 -22575251.467 10 0 59518 85500.00000 0 -12754286.658 4042594.102 -21706107.723 99